STARLINK-36888

Last updated on Mon Mar 30 2026 00:02:05 GMT+0000 (Coordinated Universal Time)

1 68004U 26039U 26088.16668981 .00025737 00000+0 91821-3 0 9994 2 68004 42.9994 299.4425 0002061 270.0576 186.0034 15.28402803 6009
UTC large
Height (km)
Speed (km/s)
/
Latitude / Longitude
Inclination (degrees)
Orbital Period (minutes)
Azimuth
Elevation
Range (km)
Doppler Factor

Next 0 passes for location: London (51.5072 / 0.1276)

Sorry there are no passes over London.